Weather History for KESN - April, 2013

Change the Weather History Date:

Monday, April 1, 2013

  Actual Average (WUND) Record (WUND)
Temperature  
Mean Temperature 54 °F -  
Max Temperature 66 °F - - (-1)
Min Temperature 41 °F - - (-1)
Degree Days  
Heating Degree Days 12    
Growing Degree Days 4 (Base 50)    
Moisture  
Dew Point 43 °F    
Average Humidity 84    
Maximum Humidity 100    
Minimum Humidity 46    
Precipitation  
Precipitation 0.00 in - - ()
Sea Level Pressure  
Sea Level Pressure 29.82 in    
Wind  
Wind Speed 4 mph (West)    
Max Wind Speed 15 mph    
Max Gust Speed 23 mph    
Visibility 6 miles    
Events Fog , Rain    
Averages and records for this station are not official NWS values.
T = Trace of Precipitation, MM = Missing Value Source: NWS Daily Summary

Daily Weather History Graph

Daily Weather History Graph

Search for Another Location

Airport or City:

Trip Planner

Search our weather history database for the weather conditions in past years. The results will help you decide how hot, cold, wet, or windy it might be!

Date:

Astronomy

Apr. 01, 2013 Rise Set
Actual Time 6:48 AM EDT 7:28 PM EDT
Civil Twilight 6:21 AM EDT 7:54 PM EDT
Nautical Twilight 5:50 AM EDT 8:26 PM EDT
Astronomical Twilight 5:17 AM EDT 8:59 PM EDT
Moon 12:31 AM EDT (4/1) 10:35 AM EDT (4/1)
Length of Visible Light 13h 33m
Length of Day
12h 39m
Waning Gibbous, 67% of the Moon is Illuminated
Apr 1
Waning Gibbous
Apr 3
Last Quarter
Apr 10
New
Apr 18
First Quarter
Apr 25
Full

Hourly Weather History & Observations

Time (EDT) Temp. Windchill Dew Point Humidity Pressure Visibility Wind Dir Wind Speed Gust Speed Precip Events Conditions
12:00 AM 50.0 °F - 50.0 °F 100% 29.82 in 10.0 mi WSW 3.5 mph - N/A   Mostly Cloudy
12:20 AM 50.2 °F - 50.2 °F 100% 29.82 in 10.0 mi West 4.6 mph - N/A   Mostly Cloudy
12:40 AM 50.0 °F - 50.0 °F 100% 29.82 in 10.0 mi West 4.6 mph - N/A   Scattered Clouds
1:00 AM 49.3 °F - 49.3 °F 100% 29.82 in 10.0 mi WSW 3.5 mph - N/A   Scattered Clouds
1:20 AM 48.7 °F - 48.7 °F 100% 29.82 in 10.0 mi Calm Calm - N/A   Scattered Clouds
1:40 AM 48.2 °F - 48.2 °F 100% 29.82 in 10.0 mi Calm Calm - N/A   Clear
2:00 AM 47.5 °F - 47.5 °F 100% 29.81 in 7.0 mi Calm Calm - N/A   Scattered Clouds
2:20 AM 47.5 °F - 47.5 °F 100% 29.81 in 7.0 mi Calm Calm - N/A   Mostly Cloudy
2:40 AM 48.2 °F - 48.2 °F 100% 29.81 in 7.0 mi Calm Calm - N/A   Mostly Cloudy
3:01 AM 46.0 °F - 46.0 °F 100% 29.81 in 4.0 mi Calm Calm - N/A   Scattered Clouds
3:21 AM 45.0 °F - 45.0 °F 100% 29.80 in 1.0 mi Calm Calm - N/A   Mostly Cloudy
3:41 AM 45.1 °F - 45.1 °F 100% 29.80 in 2.0 mi Calm Calm - N/A   Mostly Cloudy
4:01 AM 45.0 °F 43.5 °F 45.0 °F 100% 29.80 in 0.5 mi SW 3.5 mph - N/A Fog Fog
4:21 AM 43.7 °F - 43.7 °F 100% 29.80 in 0.2 mi Calm Calm - N/A Fog Fog
4:41 AM 43.7 °F - 43.7 °F 100% 29.81 in 0.2 mi Calm Calm - N/A Fog Fog
5:01 AM 45.0 °F - 45.0 °F 100% 29.81 in 0.5 mi Calm Calm - N/A Fog Fog
5:21 AM 43.5 °F 41.9 °F 43.5 °F 100% 29.81 in 0.2 mi SSW 3.5 mph - N/A Fog Fog
5:41 AM 42.8 °F - 42.8 °F 100% 29.81 in 0.5 mi Calm Calm - N/A Fog Fog
5:55 AM 44.6 °F - 44.6 °F 100% 29.81 in 0.5 mi Calm Calm - N/A Fog Fog
6:01 AM 44.6 °F - 44.6 °F 100% 29.81 in 0.8 mi Calm Calm - N/A   Overcast
6:21 AM 41.5 °F - 41.5 °F 100% 29.81 in 0.2 mi Calm Calm - N/A Fog Fog
6:41 AM 41.9 °F - 41.9 °F 100% 29.81 in 0.2 mi Calm Calm - N/A Fog Fog
6:55 AM 41.0 °F - 41.0 °F 100% 29.81 in 0.2 mi Calm Calm - N/A Fog Fog
7:01 AM 42.1 °F - 42.1 °F 100% 29.81 in 0.2 mi Calm Calm - N/A Fog Fog
7:21 AM 42.4 °F 40.7 °F 42.4 °F 100% 29.81 in 0.2 mi SSW 3.5 mph - N/A Fog Fog
7:41 AM 46.4 °F 45.2 °F 46.4 °F 100% 29.82 in 3.0 mi WSW 3.5 mph - N/A   Mist
7:51 AM 46.4 °F - 46.4 °F 100% 29.82 in 2.0 mi Calm Calm - N/A   Scattered Clouds
8:52 AM 51.8 °F - 51.8 °F 100% 29.83 in 4.0 mi SW 5.8 mph - N/A   Scattered Clouds
9:45 AM 57.2 °F - 51.8 °F 82% 29.82 in 10.0 mi SW 5.8 mph - N/A   Clear
10:51 AM 60.8 °F - 44.6 °F 55% 29.81 in 10.0 mi WSW 8.1 mph - N/A   Clear
11:50 AM 62.6 °F - 44.6 °F 52% 29.80 in 10.0 mi SSW 13.8 mph 17.3 mph N/A   Clear
12:51 PM 66.2 °F - 44.6 °F 46% 29.77 in 10.0 mi West 11.5 mph - N/A   Clear
1:50 PM 66.2 °F - 44.6 °F 46% 29.76 in 10.0 mi West 11.5 mph - N/A   Scattered Clouds
2:51 PM 62.6 °F - 44.6 °F 52% 29.76 in 10.0 mi West 5.8 mph - N/A Rain Light Rain
3:53 PM 60.8 °F - 42.8 °F 52% 29.76 in 10.0 mi NNW 15.0 mph 18.4 mph N/A   Overcast
4:53 PM 55.4 °F - 42.8 °F 63% 29.80 in 10.0 mi North 12.7 mph 20.7 mph N/A   Mostly Cloudy
5:53 PM 53.6 °F - 39.2 °F 58% 29.83 in 10.0 mi NNW 12.7 mph 20.7 mph N/A   Mostly Cloudy
6:53 PM 53.6 °F - 33.8 °F 47% 29.86 in 10.0 mi NW 15.0 mph 23.0 mph N/A   Scattered Clouds
7:53 PM 48.2 °F - 32.0 °F 54% 29.91 in 10.0 mi NNW 13.8 mph 21.9 mph N/A   Mostly Cloudy
8:53 PM 46.4 °F 40.4 °F 30.2 °F 53% 29.93 in 10.0 mi NNW 13.8 mph 20.7 mph N/A   Scattered Clouds
11:03 PM 43.9 °F 37.5 °F 26.2 °F 50% 29.97 in 10.0 mi North 12.7 mph - N/A   Clear
11:23 PM 43.7 °F 38.6 °F 27.0 °F 52% 29.97 in 10.0 mi North 9.2 mph 21.9 mph N/A   Clear
11:43 PM 43.7 °F 38.1 °F 24.3 °F 46% 29.98 in 10.0 mi North 10.4 mph 21.9 mph N/A   Clear